Buzzards Bay, MA

4:57 AM EST on February 21, 2017 (GMT -0500)
Cape Cod Coast Guard Air Station

Weather History for KFMH - April, 2014

Change the Weather History Date:

Friday, April 11, 2014

  Actual Average Record
Temperature  
Mean Temperature 54 °F -  
Max Temperature 62 °F 51 °F 62 °F (2014)
Min Temperature 45 °F 34 °F 24 °F (1997)
Degree Days  
Heating Degree Days 12    
Growing Degree Days 4 (Base 50)    
Moisture  
Dew Point 42 °F    
Average Humidity 66    
Maximum Humidity 87    
Minimum Humidity 48    
Precipitation  
Precipitation 0.00 in - - ()
Sea Level Pressure  
Sea Level Pressure 30.01 in    
Wind  
Wind Speed 16 mph (SW)    
Max Wind Speed 22 mph    
Max Gust Speed 33 mph    
Visibility 10 miles    
Events      
Averages and records for this station are not official NWS values.
T = Trace of Precipitation, MM = Missing Value Source: NWS Daily Summary

Daily Weather History Graph

Daily Weather History Graph

Search for Another Location

Airport or City:

Trip Planner

Search our weather history database for the weather conditions in past years. The results will help you decide how hot, cold, wet, or windy it might be!

Date:

Astronomy

Apr. 11, 2014 Rise Set
Actual Time 6:08 AM EDT 7:18 PM EDT
Civil Twilight 5:40 AM EDT 7:46 PM EDT
Nautical Twilight 5:05 AM EDT 8:21 PM EDT
Astronomical Twilight 4:30 AM EDT 8:57 PM EDT
Moon 3:53 PM EDT (4/11) 4:04 AM EDT (4/11)
Length of Visible Light 14h 06m
Length of Day
13h 09m
Waxing Gibbous, 87% of the Moon is Illuminated
Apr 11
Waxing Gibbous
Apr 15
Full
Apr 22
Last Quarter
Apr 29
New
May 6
First Quarter

Hourly Weather History & Observations

Time (EDT) Temp. Windchill Dew Point Humidity Pressure Visibility Wind Dir Wind Speed Gust Speed Precip Events Conditions
12:15 AM 48.2 °F - 41.0 °F 76% 30.07 in 10.0 mi SSW 20.7 mph 26.5 mph N/A   Scattered Clouds
12:35 AM 48.2 °F - 41.0 °F 76% 30.07 in 10.0 mi SSW 21.9 mph 28.8 mph N/A   Partly Cloudy
12:55 AM 50.0 °F - 41.0 °F 71% 30.07 in 10.0 mi SSW 20.7 mph 27.6 mph N/A   Partly Cloudy
1:15 AM 48.2 °F - 41.0 °F 76% 30.07 in 10.0 mi SSW 20.7 mph 29.9 mph N/A   Clear
1:35 AM 48.2 °F - 41.0 °F 76% 30.06 in 10.0 mi SSW 19.6 mph 25.3 mph N/A   Clear
1:55 AM 48.2 °F - 41.0 °F 76% 30.06 in 10.0 mi SSW 15.0 mph - N/A   Clear
2:15 AM 48.2 °F - 39.2 °F 71% 30.06 in 10.0 mi SSW 11.5 mph - N/A   Partly Cloudy
2:35 AM 50.0 °F - 39.2 °F 66% 30.06 in 10.0 mi SSW 10.4 mph - N/A   Mostly Cloudy
2:55 AM 50.0 °F - 39.2 °F 66% 30.05 in 10.0 mi SSW 15.0 mph 23.0 mph N/A   Overcast
3:15 AM 51.8 °F - 37.4 °F 58% 30.04 in 10.0 mi SSW 12.7 mph - N/A   Overcast
3:35 AM 51.8 °F - 37.4 °F 58% 30.03 in 10.0 mi SSW 15.0 mph - N/A   Overcast
3:55 AM 51.8 °F - 37.4 °F 58% 30.02 in 10.0 mi SSW 15.0 mph - N/A   Overcast
4:15 AM 51.8 °F - 37.4 °F 58% 30.02 in 10.0 mi SSW 13.8 mph - N/A   Overcast
4:35 AM 53.6 °F - 39.2 °F 58% 30.01 in 10.0 mi SSW 17.3 mph - N/A   Overcast
4:55 AM 53.6 °F - 41.0 °F 62% 30.00 in 10.0 mi SW 16.1 mph 21.9 mph N/A   Mostly Cloudy
5:15 AM 53.6 °F - 41.0 °F 62% 30.00 in 10.0 mi SW 18.4 mph 24.2 mph N/A   Mostly Cloudy
5:35 AM 51.8 °F - 41.0 °F 67% 30.00 in 10.0 mi SW 17.3 mph - N/A   Mostly Cloudy
5:55 AM 51.8 °F - 41.0 °F 67% 30.00 in 10.0 mi SW 18.4 mph - N/A   Overcast
6:15 AM 51.8 °F - 41.0 °F 67% 30.00 in 10.0 mi SW 18.4 mph 25.3 mph N/A   Mostly Cloudy
6:35 AM 51.8 °F - 41.0 °F 67% 30.00 in 10.0 mi SW 20.7 mph 26.5 mph N/A   Clear
6:55 AM 51.8 °F - 42.8 °F 71% 30.01 in 10.0 mi WSW 17.3 mph 24.2 mph N/A   Partly Cloudy
7:15 AM 50.0 °F - 42.8 °F 76% 30.02 in 10.0 mi WSW 13.8 mph 20.7 mph N/A   Partly Cloudy
7:35 AM 50.0 °F - 42.8 °F 76% 30.02 in 10.0 mi SW 18.4 mph 26.5 mph N/A   Scattered Clouds
7:55 AM 51.8 °F - 42.8 °F 71% 30.03 in 9.0 mi WSW 17.3 mph 27.6 mph N/A   Scattered Clouds
8:15 AM 51.8 °F - 42.8 °F 71% 30.03 in 9.0 mi WSW 17.3 mph 26.5 mph N/A   Mostly Cloudy
8:35 AM 51.8 °F - 42.8 °F 71% 30.02 in 9.0 mi SW 19.6 mph 33.4 mph N/A   Partly Cloudy
8:55 AM 53.6 °F - 42.8 °F 67% 30.02 in 9.0 mi SW 20.7 mph 31.1 mph N/A   Scattered Clouds
9:15 AM 53.6 °F - 42.8 °F 67% 30.02 in 9.0 mi SW 21.9 mph 33.4 mph N/A   Scattered Clouds
9:35 AM 53.6 °F - 42.8 °F 67% 30.02 in 9.0 mi SW 20.7 mph 28.8 mph N/A   Partly Cloudy
9:55 AM 55.4 °F - 42.8 °F 63% 30.03 in 9.0 mi WSW 21.9 mph 27.6 mph N/A   Partly Cloudy
10:15 AM 55.4 °F - 42.8 °F 63% 30.03 in 9.0 mi SW 17.3 mph 26.5 mph N/A   Clear
10:35 AM 51.8 °F - 42.8 °F 71% 30.05 in 9.0 mi WSW 19.6 mph 27.6 mph N/A   Scattered Clouds
10:55 AM 55.4 °F - 44.6 °F 67% 30.04 in 9.0 mi SW 15.0 mph - N/A   Partly Cloudy
11:15 AM 53.6 °F - 42.8 °F 67% 30.03 in 8.0 mi WSW 16.1 mph - N/A   Clear
11:35 AM 55.4 °F - 44.6 °F 67% 30.03 in 9.0 mi SW 12.7 mph - N/A   Clear
11:55 AM 57.2 °F - 44.6 °F 63% 30.01 in 10.0 mi SW 13.8 mph - N/A   Clear
12:15 PM 57.2 °F - 42.8 °F 59% 30.02 in 10.0 mi SW 13.8 mph - N/A   Clear
12:35 PM 59.0 °F - 42.8 °F 55% 30.01 in 10.0 mi WSW 12.7 mph - N/A   Partly Cloudy
12:55 PM 60.8 °F - 44.6 °F 55% 30.01 in 10.0 mi WSW 11.5 mph - N/A   Partly Cloudy
1:15 PM 59.0 °F - 42.8 °F 55% 30.00 in 10.0 mi SW 10.4 mph - N/A   Clear
1:35 PM 60.8 °F - 44.6 °F 55% 30.00 in 9.0 mi WSW 11.5 mph - N/A   Partly Cloudy
1:55 PM 62.6 °F - 44.6 °F 52% 29.99 in 10.0 mi SSW 9.2 mph 17.3 mph N/A   Clear
2:15 PM 62.6 °F - 44.6 °F 52% 29.98 in 10.0 mi South 12.7 mph - N/A   Partly Cloudy
2:35 PM 62.6 °F - 44.6 °F 52% 29.96 in 10.0 mi South 9.2 mph - N/A   Scattered Clouds
2:55 PM 62.6 °F - 42.8 °F 48% 29.96 in 10.0 mi South 11.5 mph - N/A   Clear
3:15 PM 62.6 °F - 42.8 °F 48% 29.97 in 10.0 mi SSW 10.4 mph - N/A   Scattered Clouds
3:35 PM 62.6 °F - 42.8 °F 48% 29.97 in 10.0 mi WSW 12.7 mph 21.9 mph N/A   Scattered Clouds
3:55 PM 62.6 °F - 42.8 °F 48% 29.97 in 10.0 mi WSW 15.0 mph - N/A   Clear
4:15 PM 62.6 °F - 42.8 °F 48% 29.97 in 10.0 mi SSW 9.2 mph 18.4 mph N/A   Partly Cloudy
4:35 PM 60.8 °F - 42.8 °F 52% 29.97 in 10.0 mi SSW 12.7 mph - N/A   Partly Cloudy
4:55 PM 60.8 °F - 42.8 °F 52% 29.97 in 10.0 mi SW 10.4 mph - N/A   Partly Cloudy
5:15 PM 59.0 °F - 41.0 °F 51% 29.97 in 10.0 mi SW 12.7 mph - N/A   Partly Cloudy
5:35 PM 57.2 °F - 42.8 °F 59% 29.98 in 10.0 mi WSW 13.8 mph - N/A   Clear
5:55 PM 55.4 °F - 42.8 °F 63% 29.98 in 10.0 mi SW 13.8 mph - N/A   Clear
6:15 PM 53.6 °F - 42.8 °F 67% 29.98 in 9.0 mi SW 9.2 mph - N/A   Clear
6:35 PM 51.8 °F - 42.8 °F 71% 29.99 in 9.0 mi WSW 13.8 mph - N/A   Scattered Clouds
6:55 PM 50.0 °F - 42.8 °F 76% 29.99 in 9.0 mi SW 12.7 mph - N/A   Mostly Cloudy
7:15 PM 51.8 °F - 42.8 °F 71% 29.99 in 10.0 mi SW 12.7 mph - N/A   Overcast
7:35 PM 51.8 °F - 42.8 °F 71% 30.00 in 10.0 mi WSW 11.5 mph - N/A   Overcast
7:55 PM 50.0 °F - 42.8 °F 76% 30.00 in 10.0 mi SW 12.7 mph - N/A   Overcast
8:15 PM 51.8 °F - 42.8 °F 71% 30.01 in 10.0 mi SW 8.1 mph - N/A   Overcast
8:35 PM 51.8 °F - 42.8 °F 71% 30.01 in 10.0 mi SW 6.9 mph - N/A   Overcast
8:55 PM 51.8 °F - 42.8 °F 71% 30.02 in 10.0 mi South 8.1 mph - N/A   Overcast
9:15 PM 51.8 °F - 42.8 °F 71% 30.03 in 10.0 mi West 6.9 mph - N/A   Overcast
9:35 PM 50.0 °F - 42.8 °F 76% 30.03 in 10.0 mi South 8.1 mph - N/A   Overcast
9:55 PM 48.2 °F - 42.8 °F 82% 30.03 in 10.0 mi South 6.9 mph - N/A   Overcast
10:15 PM 48.2 °F - 42.8 °F 82% 30.03 in 10.0 mi SSW 5.8 mph - N/A   Overcast
10:35 PM 48.2 °F - 42.8 °F 82% 30.03 in 10.0 mi SSW 5.8 mph - N/A   Overcast
10:55 PM 46.4 °F - 42.8 °F 87% 30.02 in 10.0 mi Calm Calm - N/A   Overcast
11:15 PM 48.2 °F - 42.8 °F 82% 30.02 in 10.0 mi Calm Calm - N/A   Overcast
11:35 PM 46.4 °F 43.5 °F 42.8 °F 87% 30.02 in 10.0 mi SSW 5.8 mph - N/A   Overcast
11:55 PM 46.4 °F - 42.8 °F 87% 30.01 in 10.0 mi Calm Calm - N/A   Overcast